Wind_Speed
26 25 24 23 22 21 22 21 20 20 20 20 20 19 18 17 20 24 23 21 19 16 18 20 15 9 11 12 11 11 10 7 5 5 4 4 4 4 5 6 7 8 8 9 10 10 10 11 12 13 15 18 20 22 23 25 26 26 26 24 21 20 20 20 20 19 20 20 19 19 20 20 21 22 23 24 26 29 31 30 31 33 34 34 34 35 37
24 23 23 23 23 23 23 22 20 20 21 21 20 19 19 22 25 26 23 20 16 12 16 21 14 7 11 14 11 9 7 4 3 3 2 3 4 5 5 6 7 7 8 8 9 9 8 9 9 10 11 13 16 18 20 22 24 24 24 24 23 23 22 22 23 23 23 22 22 23 23 22 22 24 27 31 33 32 30 29 32 34 35 36 37 38 40
21 21 21 22 23 23 22 22 21 21 21 20 20 20 21 23 24 23 20 19 18 17 18 18 12 8 12 12 8 8 5 2 2 2 1 3 5 6 7 7 7 7 7 8 8 7 7 7 7 6 8 10 12 14 16 18 20 21 21 21 21 22 22 23 24 25 26 26 26 27 27 26 27 28 31 33 33 31 30 31 34 35 36 38 39 40 42
21 21 22 22 22 21 21 22 22 22 22 21 20 21 21 22 22 21 19 17 19 19 16 13 10 9 10 9 7 6 4 2 3 1 2 5 7 8 8 8 7 7 7 7 7 6 6 6 4 4 6 8 10 12 14 16 17 17 18 18 19 20 22 23 24 26 26 27 28 28 28 28 28 28 29 31 31 31 32 35 38 38 37 38 39 42 44
19 20 22 21 20 21 22 23 24 24 23 23 22 21 21 21 21 19 17 18 20 19 15 11 9 10 10 8 6 4 3 3 3 2 5 7 9 9 8 8 7 7 7 6 5 5 5 5 4 4 6 8 9 12 14 15 16 16 17 18 19 20 21 22 23 24 25 26 27 27 28 28 26 25 26 28 30 31 35 39 41 39 38 39 41 42 42
19 20 21 20 20 22 23 24 25 25 24 24 24 22 22 22 21 18 18 19 20 18 14 11 10 11 10 7 5 3 3 3 2 4 7 9 10 10 9 8 8 8 7 5 4 4 4 4 4 5 7 9 10 12 13 14 14 15 16 17 18 18 20 21 21 22 23 25 26 27 29 28 25 24 25 28 32 36 40 42 40 38 40 41 39 37 37
18 18 19 20 22 23 23 24 25 26 26 26 25 24 23 22 21 18 18 19 19 17 14 11 11 12 10 7 5 3 4 4 4 7 9 10 10 10 10 8 7 7 5 4 3 4 4 4 5 7 10 12 13 15 15 14 14 15 16 17 18 19 20 21 22 22 23 24 26 26 27 27 26 27 29 32 36 39 40 40 39 40 40 38 34 32 31
19 19 21 22 24 24 24 24 26 26 27 26 25 24 24 22 20 18 18 19 19 16 13 11 12 12 9 7 5 4 5 5 7 10 11 10 10 10 9 7 5 5 4 3 3 4 4 5 7 8 10 12 14 16 17 17 16 17 18 18 18 19 21 21 22 23 23 24 25 25 26 28 28 28 30 33 35 36 36 38 39 38 35 31 28 24 21
22 22 23 23 23 23 23 24 25 26 26 25 24 23 22 21 20 20 19 19 18 16 13 12 12 11 9 7 5 5 6 8 10 11 10 10 10 9 8 6 5 4 4 4 4 5 5 6 8 9 10 12 15 17 18 18 18 19 20 21 21 22 23 23 23 23 24 24 25 25 28 29 28 28 30 31 31 31 32 33 33 30 25 21 18 17 17
22 21 22 24 23 20 20 23 25 25 25 24 23 21 21 22 22 21 20 20 18 15 13 13 13 11 9 7 6 7 9 11 11 10 9 10 9 8 6 6 5 4 4 4 5 6 7 8 9 10 12 14 17 19 20 20 20 20 21 22 24 24 24 24 24 24 25 26 26 27 29 29 30 30 28 24 22 22 23 23 21 18 15 14 15 17 19
22 22 23 24 23 21 22 25 26 26 26 25 23 21 22 23 23 22 21 19 17 14 14 14 13 11 9 8 7 8 10 11 10 9 9 10 9 8 7 6 4 3 4 5 6 7 8 9 11 12 14 16 18 20 22 22 22 22 22 23 25 25 25 26 26 26 27 28 29 29 29 29 28 23 17 12 12 13 14 14 13 12 12 14 18 21 24
23 24 23 22 23 24 25 27 28 27 26 25 21 20 22 24 23 22 21 18 16 14 14 14 12 10 9 8 8 9 10 10 9 9 10 10 9 8 6 4 3 3 4 5 7 8 9 10 12 13 15 16 18 20 22 24 24 25 24 24 26 27 27 28 28 28 29 30 30 29 28 26 20 13 7 7 8 10 11 11 10 11 15 20 23 25 28
23 23 23 24 23 23 24 26 27 27 26 24 21 22 25 26 25 23 20 17 16 15 15 13 11 10 9 9 9 10 11 11 11 10 10 10 9 7 5 4 3 3 4 6 8 8 9 10 11 13 15 15 17 19 21 23 24 26 27 27 27 28 28 28 28 28 28 27 26 25 22 17 11 6 4 6 7 9 10 9 10 15 22 25 27 29 32
23 24 25 24 21 20 24 26 26 27 27 25 25 27 29 27 25 23 19 17 17 16 15 12 10 9 10 10 11 12 13 13 12 12 11 9 8 6 5 4 3 3 5 7 8 9 10 10 12 15 17 17 19 20 22 23 24 25 26 26 26 26 26 26 25 25 24 23 21 17 11 7 4 3 4 5 6 8 9 11 15 22 26 27 29 32 33
23 24 23 22 20 21 28 30 29 29 29 28 29 29 28 26 24 22 19 18 17 16 14 11 10 11 12 13 14 14 14 13 13 12 10 9 7 6 5 4 4 5 6 8 10 11 13 14 16 18 19 20 21 22 23 23 24 24 23 23 23 23 22 22 21 20 19 17 14 10 5 3 4 4 4 6 8 11 12 15 20 25 27 28 30 32 33
25 24 24 25 26 26 30 32 31 30 30 30 30 28 27 26 24 21 19 19 18 16 14 13 13 14 15 15 15 15 14 13 12 11 10 8 7 6 5 5 6 6 7 9 12 14 16 17 18 19 20 21 21 22 22 22 22 22 21 20 20 19 18 17 16 15 14 12 11 8 6 6 8 8 9 11 13 15 16 19 23 25 26 27 30 33 36
28 27 27 29 31 30 30 32 33 31 29 29 29 26 26 25 23 21 20 19 18 17 16 15 16 17 17 16 16 15 14 13 12 10 9 8 7 6 6 7 7 8 9 11 13 15 16 17 18 19 20 21 21 21 21 20 20 19 19 18 16 15 15 15 14 13 12 11 10 10 10 11 12 14 15 16 18 19 21 22 23 23 24 27 31 36 40
27 29 29 31 34 34 32 32 32 31 29 29 28 26 26 25 23 21 21 20 20 19 18 17 17 18 18 18 17 16 14 12 11 9 8 7 7 7 8 8 9 10 11 12 13 14 15 16 17 17 19 20 20 20 20 19 18 18 17 15 14 13 14 14 14 14 13 12 12 13 14 15 16 17 18 19 20 21 22 23 24 25 28 31 35 39 40
26 29 31 33 35 35 32 31 30 30 28 28 27 27 26 25 23 22 22 22 22 21 19 18 19 19 19 19 18 17 15 13 11 9 8 8 9 9 9 10 11 11 11 11 11 12 12 14 15 16 18 19 20 20 20 20 18 17 15 14 14 14 14 13 13 13 12 12 13 15 16 18 18 19 20 21 21 22 23 26 29 32 34 35 37 37 37
24 27 30 33 34 33 31 30 29 28 28 28 28 28 26 25 24 23 23 23 22 21 20 20 20 21 21 20 19 17 16 14 12 11 10 10 11 11 11 12 12 11 11 11 10 10 11 12 14 15 16 18 19 19 19 19 18 16 14 13 14 15 15 15 14 15 14 14 14 15 17 19 20 21 21 22 23 25 29 32 34 35 35 35 34 33 34
22 26 29 31 32 32 31 30 29 28 28 28 28 28 27 26 25 24 23 23 22 22 21 20 20 20 20 19 18 17 16 15 13 12 12 12 12 12 13 13 12 11 11 11 11 11 11 12 14 15 15 16 18 19 18 18 17 15 13 12 13 15 16 16 17 17 17 17 16 17 18 19 21 23 24 26 28 30 32 33 33 32 32 31 30 31 34
21 24 27 29 30 31 32 31 30 30 29 29 28 27 27 27 25 24 23 22 22 22 21 21 20 19 18 17 17 17 16 15 14 14 13 13 13 14 15 14 13 12 12 13 12 12 13 13 14 15 16 16 16 18 18 18 17 15 13 12 12 13 15 17 18 19 19 19 19 20 20 21 22 24 25 27 28 29 29 29 28 28 28 28 30 33 34
20 23 25 26 28 31 33 33 32 31 30 29 29 28 27 27 26 25 24 24 23 23 23 22 21 19 18 18 17 16 15 14 14 14 14 14 14 15 15 15 14 13 13 14 13 13 14 14 14 16 17 17 16 17 18 18 17 16 15 14 12 12 13 14 15 17 18 18 19 20 21 21 22 22 23 24 25 26 26 26 26 27 28 30 32 33 33
20 22 24 26 28 31 34 34 33 32 31 30 30 29 28 28 28 27 26 25 25 24 23 23 22 20 19 18 17 16 15 14 13 14 14 15 15 15 15 15 14 14 14 14 14 15 15 15 15 16 17 18 18 17 18 18 19 18 17 17 16 15 14 14 14 15 15 16 17 18 19 19 20 20 21 22 23 23 24 25 26 28 30 31 32 31 31
21 23 25 27 29 31 33 34 34 33 32 31 31 31 29 28 28 29 28 27 26 25 24 23 22 21 20 19 18 16 15 15 14 15 15 15 15 15 15 15 15 14 14 14 15 16 16 16 15 16 17 18 19 18 18 18 19 19 19 19 19 18 17 17 17 16 16 16 16 17 18 18 18 19 20 21 21 22 23 24 26 27 28 29 29 29 30
21 22 25 27 29 30 32 34 34 34 33 33 33 33 30 28 28 29 29 29 28 27 25 24 23 22 22 20 19 18 17 16 16 16 16 16 16 16 16 15 15 15 15 15 15 16 16 16 15 15 15 17 18 19 19 19 20 20 20 20 21 21 20 20 19 19 18 18 18 18 19 19 20 20 21 22 22 22 23 24 25 25 26 27 27 27 27
19 21 23 24 25 27 30 33 34 34 34 34 34 34 32 30 29 29 29 30 29 28 27 26 25 24 23 22 20 20 18 18 18 18 17 17 17 17 17 17 16 16 16 15 15 16 15 15 14 14 14 15 17 19 20 20 21 21 22 22 21 21 21 21 21 20 19 19 19 19 19 19 20 21 21 22 22 22 22 23 23 24 24 24 25 25 25
17 19 21 23 24 26 30 33 34 34 34 34 34 34 33 31 30 29 29 29 29 28 28 27 27 26 25 24 23 21 20 19 18 18 18 18 17 17 17 17 17 17 16 15 15 14 14 14 14 14 14 15 16 18 20 20 21 21 22 22 22 22 21 21 21 20 19 18 18 18 18 18 19 19 19 20 21 21 22 21 22 22 22 22 22 23 24
18 19 21 24 27 29 32 34 35 35 34 33 33 34 33 32 31 30 29 28 28 28 28 27 27 27 25 24 24 23 21 20 18 18 18 18 17 17 17 17 17 17 16 15 14 13 14 15 15 14 14 14 15 17 18 19 20 21 22 23 23 23 22 21 20 20 19 18 18 17 17 17 18 18 18 19 19 20 20 20 20 20 20 20 21 22 23
19 19 21 25 28 31 32 34 35 35 34 33 33 33 33 32 31 31 30 29 28 28 27 27 26 25 24 24 23 23 22 20 19 19 18 17 16 16 17 17 17 17 16 15 13 13 14 14 14 13 13 13 14 16 16 18 19 20 21 22 23 23 22 21 19 19 18 18 17 17 17 17 17 17 17 18 17 18 18 18 18 18 18 19 20 22 23
21 21 21 24 27 30 32 33 34 35 35 34 34 33 32 31 31 31 32 31 29 28 27 26 25 24 24 23 23 23 22 21 20 20 19 18 17 17 17 18 18 18 16 15 14 13 14 14 14 13 12 13 14 15 16 17 18 19 20 21 21 21 22 21 19 18 17 17 17 17 17 17 17 16 16 16 16 15 15 16 17 17 18 19 20 21 22
24 24 23 24 27 31 33 34 34 34 35 35 35 33 32 32 32 32 32 31 30 28 27 27 26 25 25 24 23 22 22 22 22 22 21 20 19 18 18 18 19 18 17 17 16 15 15 15 15 14 14 14 15 16 17 18 18 19 20 20 21 21 21 20 20 19 18 17 18 18 19 19 18 17 16 15 14 14 14 14 16 17 18 18 19 20 21
26 26 24 24 26 30 33 35 35 35 35 36 36 36 35 34 33 32 32 31 30 29 28 27 27 26 26 25 24 23 23 23 23 23 23 22 21 20 19 19 19 19 19 19 18 17 16 16 16 17 17 16 17 17 18 19 19 20 20 21 21 21 21 20 20 20 19 19 19 20 20 20 20 19 17 15 14 13 14 15 16 17 16 17 17 19 21
28 26 25 25 26 28 32 35 36 37 37 38 38 37 36 35 34 33 33 32 31 31 30 29 29 28 27 27 26 25 25 25 25 25 25 25 23 22 21 21 21 21 21 21 21 21 20 19 18 18 18 18 18 18 19 20 20 21 21 21 21 21 21 21 20 20 20 21 21 21 21 21 20 20 19 17 15 14 14 16 16 15 14 15 17 19 21
30 29 28 27 27 27 30 33 35 37 37 37 37 37 36 35 34 34 33 32 32 31 31 31 31 31 30 30 30 29 29 29 29 29 28 27 26 25 24 24 24 24 24 24 24 24 23 21 20 18 18 18 19 20 21 21 22 22 22 22 22 22 22 22 22 21 21 21 21 21 21 20 20 20 20 19 17 15 15 15 14 13 14 16 17 19 21
33 31 30 28 27 26 27 30 33 35 36 36 36 35 35 35 34 33 33 33 32 32 32 31 31 31 31 31 31 31 31 31 31 30 29 28 27 27 26 26 26 26 26 26 26 25 24 23 21 20 20 20 21 22 23 23 23 23 23 23 24 24 24 24 23 23 22 22 21 21 21 20 19 20 20 20 18 17 15 14 12 12 14 15 16 18 20
34 33 31 29 27 26 27 28 31 33 34 34 35 34 34 33 33 33 33 32 32 32 32 31 30 30 30 30 30 30 30 30 30 30 29 28 28 28 28 28 27 27 27 26 26 25 25 24 23 23 23 23 24 25 25 24 24 24 24 24 25 25 25 25 25 24 23 22 22 21 21 20 19 19 19 19 19 17 16 15 13 13 13 14 15 17 19
35 34 32 30 28 27 27 27 29 31 33 33 34 34 34 33 32 32 32 32 31 31 30 29 29 29 29 29 29 28 28 29 29 29 29 28 28 28 28 28 28 27 26 26 26 26 26 26 26 25 25 26 26 26 26 26 25 25 25 26 26 26 27 26 26 26 25 24 22 21 21 20 20 19 19 19 18 18 17 16 16 15 15 16 16 17 18
36 35 33 31 30 29 28 27 28 29 30 31 32 33 33 32 32 32 31 31 30 30 29 28 28 28 28 28 28 28 28 28 29 29 29 28 28 28 28 28 28 27 27 27 27 28 28 28 28 28 27 28 28 28 28 28 28 28 28 27 27 28 28 28 28 27 27 25 24 22 21 21 20 20 19 18 18 18 18 18 18 18 18 18 18 17 18
36 35 33 32 31 31 29 28 28 28 29 29 30 31 32 31 31 31 30 30 29 29 28 28 27 27 27 28 28 28 27 28 28 28 28 28 28 28 28 28 28 27 27 28 29 30 30 30 29 29 29 30 30 31 31 31 31 31 31 30 29 29 29 29 29 29 28 27 26 24 23 22 22 21 21 20 19 18 18 19 19 20 20 20 20 19 19
35 34 33 33 33 32 31 30 29 28 28 28 29 29 30 30 30 30 30 30 30 29 29 28 28 27 27 27 27 27 26 26 26 27 27 27 27 27 28 28 28 28 29 30 30 31 31 30 30 30 31 32 33 34 34 34 34 34 34 32 31 31 31 31 30 30 29 28 27 26 25 25 24 23 22 21 21 20 20 21 21 22 22 22 22 21 21
34 34 33 33 33 32 31 30 30 29 28 28 28 28 28 28 29 29 30 30 30 30 30 30 29 28 28 28 27 27 26 26 26 26 26 27 27 27 28 28 29 29 30 31 32 32 32 32 32 32 32 33 35 36 36 36 36 36 35 34 33 32 32 32 32 31 31 30 28 27 26 26 26 25 25 23 23 22 22 22 23 24 24 24 24 24 24
35 34 34 33 33 32 31 30 29 28 28 27 27 27 27 27 27 28 30 31 31 32 32 31 30 30 29 29 28 27 27 27 27 27 27 28 28 29 29 30 30 31 32 33 33 33 33 33 33 33 34 36 37 37 38 38 37 36 35 34 33 33 33 33 33 33 32 31 30 29 28 28 27 27 27 26 25 24 24 24 25 26 27 26 26 27 27
35 34 34 34 33 32 31 30 29 28 27 27 27 26 27 27 28 28 30 31 31 32 32 31 31 31 30 30 29 28 28 28 28 28 29 29 30 31 32 32 33 34 35 35 35 35 35 35 35 36 37 38 39 39 39 38 37 35 35 34 34 33 33 33 33 33 33 32 31 30 30 30 29 29 29 29 28 27 26 26 26 27 28 29 29 29 29
35 34 34 34 34 33 32 31 30 29 28 28 28 28 28 28 28 29 29 30 30 31 31 31 31 31 30 30 29 29 29 29 30 30 30 31 31 32 33 34 35 36 36 36 36 36 37 37 38 39 40 40 40 39 39 38 36 36 35 35 34 34 33 33 34 34 34 33 32 32 31 31 31 31 31 31 31 30 29 29 29 29 30 31 31 31 31
35 35 35 35 35 34 33 32 32 31 30 30 29 29 29 29 29 29 29 30 30 30 30 30 30 30 30 30 31 31 31 32 32 32 33 33 34 34 35 35 36 36 36 37 37 37 38 39 40 41 41 40 39 38 38 37 36 36 36 35 34 34 34 33 34 34 34 34 33 33 33 33 33 33 33 33 33 32 32 31 31 31 32 32 33 33 33
35 35 35 36 36 35 34 34 33 32 32 31 31 31 31 30 30 30 30 30 30 30 30 30 30 30 30 31 32 32 33 33 34 34 35 35 36 36 37 37 37 37 37 37 37 38 38 39 40 40 39 38 37 36 36 36 36 35 35 35 34 34 34 34 34 34 35 35 35 35 35 35 35 35 34 34 34 34 34 34 33 33 33 34 34 34 34
35 35 36 36 36 35 35 35 34 33 32 32 32 32 32 31 31 30 30 30 30 29 29 29 29 29 30 31 32 32 33 34 34 35 35 36 36 37 37 37 37 36 36 36 36 36 37 38 38 38 37 36 35 35 34 35 35 35 35 35 35 35 35 36 36 36 36 36 37 36 36 36 36 36 36 35 35 35 35 36 35 35 35 35 35 35 36
36 36 36 36 36 36 36 36 35 34 33 33 33 32 32 32 31 31 31 30 30 29 29 29 29 29 29 30 31 31 32 33 33 34 34 34 34 34 34 34 34 34 34 34 34 34 35 35 36 36 36 35 35 35 35 35 35 36 36 36 37 37 37 38 38 38 38 38 38 38 38 38 37 37 37 36 36 36 37 37 37 37 37 37 37 37 37
37 36 37 37 37 38 37 36 35 34 34 34 33 33 33 32 32 32 31 30 30 29 29 29 29 29 29 30 31 31 32 32 32 32 32 32 32 32 33 33 33 33 33 33 33 33 34 35 36 36 37 37 37 36 36 36 37 37 38 38 39 39 39 40 40 40 40 40 40 40 40 39 39 38 38 38 37 38 38 39 39 39 39 38 38 39 39
37 37 37 38 38 38 37 36 36 36 35 34 33 33 33 33 33 32 31 30 30 30 30 30 30 30 31 32 32 32 32 32 32 32 32 33 33 34 35 35 35 35 34 34 34 34 35 36 37 38 38 39 39 39 39 39 39 39 40 40 40 41 41 42 42 42 42 42 42 42 42 42 41 41 40 39 39 39 39 39 40 40 40 40 39 39 40
37 37 37 37 38 37 37 37 37 37 35 34 34 34 34 34 33 32 31 31 31 31 31 31 32 32 32 32 33 33 33 33 34 34 34 35 35 36 36 36 36 36 35 35 35 36 36 37 38 39 40 41 41 40 40 41 41 41 41 41 41 42 42 43 43 43 44 44 44 44 45 45 45 45 44 44 43 43 42 42 43 43 44 44 43 42 41
Wind_Direction
230 228 224 220 217 214 214 216 216 216 217 219 221 225 229 230 231 237 244 252 259 270 278 274 271 282 288 279 269 268 272 281 287 283 270 263 257 242 224 207 204 208 213 218 224 229 233 236 237 238 238 238 238 239 240 241 240 241 243 245 248 250 254 261 267 271 275 278 284 294 297 294 294 296 296 297 301 307 309 309 310 311 310 308 306 306 307
227 227 223 219 215 212 212 213 213 215 217 219 220 223 226 227 232 237 241 248 251 247 257 267 270 268 267 266 266 272 280 286 281 277 267 242 227 221 209 195 193 197 203 210 217 222 226 230 233 237 241 243 243 243 244 244 244 244 245 248 253 256 260 265 269 272 276 278 285 293 296 296 295 295 296 297 301 304 305 306 307 307 307 306 305 306 307
221 222 221 219 216 214 214 213 213 215 217 219 219 221 226 229 234 239 242 248 250 235 233 251 263 252 251 259 273 286 291 282 261 259 223 201 196 192 186 177 176 181 189 198 204 209 215 219 224 236 249 252 251 249 247 247 248 249 250 252 256 259 263 267 270 274 279 283 287 290 292 293 296 299 301 302 302 302 303 305 306 306 306 307 306 307 308
218 218 219 220 219 219 217 216 216 216 216 218 218 220 226 230 235 241 243 247 253 250 247 255 260 254 255 265 283 294 294 261 247 218 168 177 172 167 162 155 158 174 184 189 195 204 213 211 205 224 252 257 256 254 250 248 248 250 252 255 259 263 266 270 274 278 280 284 288 290 292 297 300 304 305 300 296 297 299 303 305 306 306 308 307 307 307
219 221 222 221 219 221 220 219 218 218 216 215 217 219 224 230 234 239 244 244 247 252 257 260 256 252 254 260 275 286 267 241 237 172 162 163 152 145 142 143 158 178 181 180 188 207 219 210 195 216 244 254 254 253 250 249 248 249 252 256 260 264 268 272 276 278 281 285 287 290 295 299 299 300 299 291 286 290 295 300 303 304 305 307 306 306 307
217 222 225 223 222 223 222 221 221 219 217 215 216 218 222 229 233 235 239 243 246 251 256 256 248 245 247 251 261 263 236 227 206 159 154 146 137 137 142 150 165 176 172 169 185 210 222 219 212 228 246 256 261 259 255 253 251 251 253 256 259 264 267 270 274 277 281 285 287 291 297 298 294 293 292 285 283 289 294 299 301 301 301 304 306 308 311
210 216 224 225 225 224 222 221 220 219 219 218 217 218 222 228 232 235 238 241 244 249 251 246 239 239 241 244 247 233 212 202 167 145 139 135 138 145 149 154 168 174 169 171 195 214 228 235 237 243 251 259 267 268 267 264 262 262 262 263 265 267 269 271 275 278 280 283 287 291 295 294 290 287 284 283 287 293 296 298 297 296 298 303 308 314 323
210 216 224 226 226 225 223 223 223 221 221 221 220 222 225 230 234 236 239 241 242 244 244 238 235 236 237 237 230 209 195 175 146 137 134 138 147 151 150 159 177 186 190 205 221 231 238 243 243 246 253 262 268 271 272 271 271 273 274 275 275 274 275 277 279 281 282 285 289 291 290 289 285 281 283 288 294 296 295 294 292 293 298 307 317 330 345
213 217 222 223 222 224 228 229 227 225 225 224 225 228 231 235 237 238 239 239 240 240 236 232 233 234 232 229 216 194 177 157 142 139 140 145 152 152 154 173 192 199 210 226 240 248 249 249 251 253 259 266 270 272 273 273 273 275 278 280 280 280 280 282 283 283 283 285 288 289 287 285 284 286 292 297 298 296 293 292 292 298 309 324 341 359 8
214 217 224 225 221 221 230 235 232 229 229 228 228 231 235 238 238 239 239 239 238 235 229 228 231 232 228 221 204 182 165 152 145 145 148 151 153 155 167 187 196 200 218 237 250 257 261 265 267 268 269 271 272 274 276 277 277 277 279 281 282 282 283 283 284 284 283 283 286 286 285 286 289 293 297 299 297 296 297 300 307 320 339 359 9 6 358
211 212 220 226 221 214 221 231 233 231 230 229 227 228 233 239 240 239 238 238 235 229 225 225 228 227 218 205 190 173 159 154 154 157 158 160 162 169 180 187 195 217 247 261 266 271 275 280 282 282 281 279 280 281 283 284 284 284 284 284 283 283 283 284 283 282 282 283 285 285 287 290 291 291 295 302 310 317 323 331 343 360 10 7 358 352 349
210 208 212 218 220 218 219 226 231 230 228 226 224 224 230 238 241 239 237 235 230 223 223 225 224 221 212 194 178 169 165 169 174 171 168 170 173 177 179 181 205 241 263 274 281 284 287 289 289 287 285 284 285 286 286 286 287 287 286 284 281 281 281 282 283 284 284 286 288 290 291 289 284 282 296 326 340 347 351 356 5 8 356 348 344 344 344
213 209 206 207 213 220 222 223 227 228 224 221 219 219 224 230 235 236 232 228 223 219 220 220 215 214 207 186 174 176 181 187 187 181 178 179 177 175 174 180 213 251 273 281 283 286 288 289 290 290 288 288 288 289 288 287 287 286 285 282 280 280 281 283 286 288 289 291 292 291 286 278 269 270 309 335 345 348 348 351 349 342 339 337 338 339 340
211 206 204 201 204 219 227 226 228 229 224 218 218 220 222 224 227 227 223 217 215 215 215 213 207 204 196 181 177 187 193 194 192 189 188 184 175 172 176 183 213 255 275 282 285 286 286 289 293 294 294 294 295 294 293 294 293 292 290 289 287 286 286 288 291 292 291 291 286 279 268 256 253 279 311 324 330 330 328 326 326 328 330 331 332 334 336
210 204 204 200 200 219 231 230 229 228 222 217 217 219 220 221 221 218 213 209 209 210 207 201 196 191 185 180 183 190 194 194 193 193 190 181 173 174 181 198 229 252 269 280 285 287 288 290 292 294 296 299 301 301 302 302 301 300 299 298 296 294 293 293 292 289 286 280 267 253 239 241 259 277 292 303 310 312 313 314 318 322 324 326 328 330 331
206 198 200 204 205 214 225 226 224 222 218 215 214 214 215 217 215 210 206 203 203 202 196 190 187 182 180 183 187 189 190 192 194 192 187 179 178 184 198 220 240 255 268 275 281 286 289 291 293 297 302 305 307 309 310 309 308 306 304 302 299 297 294 291 284 277 271 262 251 249 263 275 276 278 283 292 300 305 307 310 314 316 319 322 324 325 325
205 196 201 213 213 211 215 218 219 217 212 209 209 209 209 209 207 203 201 199 198 195 187 183 182 179 179 186 189 187 186 191 194 191 187 186 192 204 220 236 250 261 269 274 281 287 292 295 299 305 310 313 315 316 316 313 311 308 304 300 297 292 285 278 272 267 265 265 264 268 277 285 286 284 284 290 297 301 303 307 311 314 317 319 319 319 320
209 203 204 212 213 209 211 215 215 212 207 204 203 203 202 202 200 199 198 194 191 187 180 178 181 182 183 188 189 185 185 190 194 196 198 207 218 228 237 248 259 267 274 280 285 291 296 300 307 313 317 319 321 322 320 318 316 310 301 292 285 279 273 268 267 268 269 271 274 277 280 285 287 285 285 288 293 297 300 304 309 313 315 315 316 316 319
211 206 203 206 209 210 212 212 207 203 201 199 199 198 198 197 196 196 195 191 188 183 180 181 185 186 188 191 191 188 190 193 199 206 216 228 238 243 248 255 262 268 275 282 287 293 300 307 315 322 325 325 326 326 324 321 318 312 300 285 274 271 270 268 268 270 270 271 275 280 282 284 284 284 284 285 288 292 297 302 306 309 311 314 315 316 319
212 211 208 207 208 209 208 204 200 197 196 195 195 195 195 194 194 194 193 190 187 184 184 188 191 191 193 194 194 195 197 200 205 214 226 236 243 248 253 258 263 268 273 277 284 294 304 314 322 327 329 331 332 330 326 322 319 315 303 286 276 274 275 273 273 275 276 276 278 282 283 282 281 280 280 280 282 288 294 300 304 307 311 314 315 317 321
216 218 217 212 206 202 200 197 195 193 192 191 192 194 194 193 193 193 192 191 188 188 190 194 198 199 199 199 200 202 206 209 213 220 229 236 241 245 251 256 260 265 269 271 278 293 308 317 321 323 327 332 334 333 328 322 318 316 308 294 283 280 280 279 278 279 279 280 281 284 285 285 283 282 281 281 284 290 297 302 306 310 315 317 317 320 325
217 221 223 216 206 199 196 196 194 192 191 190 191 194 195 193 192 193 194 193 193 194 197 200 204 207 208 209 211 212 214 216 218 221 227 232 237 241 246 250 253 257 263 269 278 292 305 312 315 316 319 322 327 330 328 322 316 314 311 303 292 286 283 282 281 282 283 284 284 285 287 288 289 289 289 290 293 298 302 306 311 315 317 317 319 323 326
217 223 225 220 208 199 197 197 196 195 193 191 192 196 197 193 191 195 198 198 199 201 202 203 205 207 210 214 216 217 220 222 221 222 225 230 235 238 241 243 247 252 260 270 281 292 300 304 305 308 312 314 317 321 323 321 317 312 308 304 297 291 287 285 284 284 286 287 288 290 291 293 295 297 298 300 301 303 306 309 312 312 313 315 319 323 326
215 223 224 218 209 202 200 200 199 197 196 193 194 199 201 195 194 198 201 202 205 206 207 207 207 206 207 210 214 217 221 224 224 223 226 230 233 235 237 240 246 254 263 274 285 292 296 296 299 304 309 311 312 313 314 316 316 313 307 303 298 293 290 287 286 286 288 290 292 295 297 300 302 303 305 305 305 306 309 311 310 310 311 315 320 324 328
207 216 220 217 212 206 204 202 201 199 198 195 197 202 204 200 199 201 203 205 208 210 210 211 211 209 210 212 215 217 218 219 220 222 226 230 232 234 237 243 250 258 267 278 287 292 294 295 297 302 307 310 311 311 311 310 311 312 310 306 301 296 292 289 287 286 288 291 294 296 298 301 304 305 306 306 307 308 310 312 312 313 315 319 323 327 330
204 209 215 217 215 211 206 204 203 202 200 198 200 204 207 206 204 205 206 208 210 211 211 211 212 214 217 218 219 220 218 216 218 222 226 229 232 236 241 246 254 262 270 279 286 289 293 295 297 300 305 309 312 312 311 309 307 308 308 307 304 300 296 293 290 289 289 290 293 296 299 302 303 305 306 307 309 311 312 314 315 316 320 324 328 331 332
206 206 210 215 217 215 209 206 206 205 204 203 204 206 208 209 208 209 210 211 212 213 213 213 214 217 220 221 221 221 220 219 221 224 228 231 235 239 244 250 256 263 269 276 282 286 290 294 298 301 304 308 313 315 314 312 309 307 306 306 304 301 298 296 294 293 294 295 297 300 303 305 306 307 308 310 312 313 314 316 318 320 324 329 332 333 333
207 206 206 209 213 215 212 209 208 208 208 207 208 208 210 210 211 212 213 213 213 214 215 216 217 219 221 222 222 222 221 223 225 228 231 234 237 241 246 250 255 261 267 272 277 282 286 292 298 303 306 310 315 318 318 316 314 312 310 308 306 303 300 298 297 297 298 300 302 304 306 308 310 311 312 313 314 315 317 319 321 325 330 333 334 334 335
211 206 204 204 208 211 212 212 211 210 210 210 211 211 212 212 213 214 216 217 216 216 217 218 219 220 221 223 224 224 224 225 228 231 235 238 241 244 247 251 254 259 263 267 270 276 284 291 298 303 307 312 316 318 319 319 318 317 314 312 310 307 303 301 299 300 301 302 304 307 308 310 312 313 314 315 316 318 320 323 326 330 333 335 335 336 337
219 214 210 208 208 210 212 214 213 212 211 211 212 213 214 215 215 217 219 220 221 220 220 221 222 223 223 224 226 227 227 229 233 237 240 243 246 249 250 252 254 256 258 260 263 271 282 290 295 301 307 312 315 317 321 323 324 322 319 316 313 310 307 304 303 303 304 306 308 310 312 314 315 316 317 318 320 322 325 328 331 334 336 336 336 337 338
221 221 219 215 212 211 212 214 214 213 212 212 213 215 216 217 217 219 221 223 225 226 226 226 226 225 226 227 229 230 231 234 238 242 246 248 251 252 252 252 253 253 254 254 258 266 277 286 291 296 303 310 314 317 320 323 326 327 325 321 318 313 310 308 307 308 309 311 313 316 318 319 320 321 322 322 324 326 330 334 336 338 338 339 339 340 341
219 220 221 219 217 214 213 214 214 214 213 214 215 216 217 218 220 221 223 226 228 230 231 231 230 229 229 231 233 234 236 238 241 246 249 251 252 252 251 250 250 250 251 252 255 262 272 280 286 291 297 303 308 312 316 319 322 324 324 323 320 316 312 310 310 311 312 314 316 319 321 322 322 322 322 323 325 326 329 335 338 339 339 341 344 347 348
219 220 222 223 221 218 216 214 214 214 214 215 216 217 219 220 222 223 226 228 230 232 234 235 236 236 236 236 237 238 239 241 245 249 253 253 252 251 249 249 249 250 252 254 257 262 269 276 282 287 292 297 301 304 307 311 315 318 319 319 317 314 311 309 309 310 312 314 316 318 319 320 320 320 320 321 321 320 322 328 334 337 339 344 349 353 353
218 219 221 223 223 220 217 215 213 213 214 215 216 218 220 222 223 225 227 228 230 232 234 237 239 241 243 243 243 244 244 246 249 253 255 254 252 251 250 250 251 253 255 257 260 264 269 275 279 284 289 294 298 301 303 305 308 310 312 313 312 311 309 306 305 306 308 311 313 315 316 317 317 317 318 319 319 316 317 322 328 333 337 342 345 348 350
216 217 219 221 222 220 218 216 215 214 214 215 217 218 220 222 223 225 227 230 232 234 235 237 239 242 244 246 247 248 249 250 252 254 255 254 252 251 252 252 253 254 257 259 262 265 269 274 278 281 285 290 295 300 303 304 304 304 305 306 307 306 305 304 302 301 303 306 309 311 312 313 314 315 315 317 318 317 317 320 325 329 334 337 338 339 341
216 217 219 221 222 221 219 217 216 216 216 217 218 219 220 222 223 225 228 231 233 235 237 239 240 243 245 247 248 250 251 251 251 252 253 253 253 253 254 255 255 255 257 260 263 266 269 273 275 278 282 287 292 296 300 301 301 300 299 299 300 301 301 301 300 299 299 301 304 305 306 307 309 310 312 314 316 316 316 317 319 325 332 336 337 336 335
217 218 219 221 222 221 219 217 217 217 217 218 219 221 222 223 224 226 229 231 234 236 238 241 243 245 246 248 249 250 250 249 249 250 251 252 253 254 255 255 255 256 258 261 264 266 269 271 274 277 282 287 291 295 297 298 298 297 295 294 294 294 296 297 297 297 296 297 298 300 301 301 302 304 306 308 310 311 310 309 308 312 320 327 329 330 333
218 219 220 220 221 221 219 217 216 216 217 218 220 222 224 225 227 229 231 233 235 238 241 243 246 247 249 250 250 250 249 248 248 249 251 252 253 254 255 255 256 258 260 263 266 269 271 272 275 278 283 288 291 294 296 297 297 296 294 291 290 290 291 292 293 293 294 293 294 295 296 296 297 298 300 301 303 304 304 304 304 305 311 318 324 329 335
219 220 220 220 221 221 220 218 217 217 217 219 221 224 226 227 229 231 233 235 238 241 243 245 246 248 248 249 249 248 247 247 248 250 251 252 253 253 254 255 257 259 262 265 268 270 272 274 277 281 285 288 291 293 295 297 297 297 294 291 288 287 288 289 290 290 291 291 291 292 292 292 293 293 295 296 296 296 297 299 300 302 306 313 320 326 332
219 220 220 221 222 222 221 220 218 218 218 220 222 225 228 230 231 233 235 237 239 241 243 244 245 245 246 246 246 246 246 247 247 249 250 251 252 253 254 257 259 261 264 266 268 270 271 274 277 281 285 288 291 293 295 296 297 297 295 291 287 285 285 286 286 288 289 289 290 291 291 291 290 290 292 293 293 292 291 293 295 297 301 305 310 316 321
218 219 220 221 222 223 223 222 221 220 221 222 224 227 230 232 234 235 236 238 239 240 242 243 243 244 245 246 246 246 245 245 247 248 250 251 253 254 257 259 261 263 264 266 268 269 271 274 278 281 284 287 289 291 294 295 296 296 294 291 287 284 283 283 284 285 286 286 287 289 290 290 289 288 288 289 290 290 289 289 290 292 295 298 302 306 311
218 218 219 221 223 224 224 224 223 223 223 224 227 229 232 234 236 237 238 239 240 241 242 243 244 246 248 248 248 247 246 247 249 251 253 255 256 258 260 261 262 263 264 265 267 270 273 276 279 282 284 286 288 290 292 293 294 293 292 290 287 284 282 282 283 284 284 285 285 286 288 289 289 287 286 285 286 287 287 288 288 289 290 292 295 299 303
216 217 218 220 222 224 225 226 226 226 226 227 229 232 234 236 237 238 239 240 241 242 243 244 245 247 248 249 249 248 249 250 252 254 256 258 259 260 261 262 262 263 264 266 269 272 275 278 281 283 284 285 287 289 290 291 290 289 288 288 286 284 282 282 282 283 283 284 285 285 286 287 288 287 285 284 283 283 284 285 287 288 289 289 291 293 296
216 217 218 220 222 224 226 227 227 228 229 230 232 234 235 237 238 238 238 239 240 241 242 243 244 245 247 248 249 250 251 253 255 257 259 260 262 263 264 264 264 265 267 269 272 275 278 280 282 284 285 286 287 288 288 288 287 286 285 285 284 282 281 281 281 281 282 283 284 285 286 287 288 288 286 285 284 283 283 283 284 286 287 288 288 290 291
217 217 219 221 223 224 225 226 226 227 228 229 231 233 235 236 237 237 238 238 239 239 241 242 243 245 247 249 250 252 254 256 258 260 262 263 265 266 266 266 267 268 270 272 275 277 279 281 282 283 284 286 287 287 287 286 285 284 284 284 283 281 280 279 280 280 281 281 282 283 285 287 288 288 288 286 285 284 284 283 284 285 285 286 287 288 288
218 218 219 222 224 225 225 225 225 226 227 228 229 231 233 234 235 236 238 239 240 241 242 244 245 248 250 251 253 255 257 259 260 262 264 265 267 267 268 269 269 271 272 274 276 277 279 280 281 282 284 285 286 286 285 285 285 284 284 283 283 282 281 280 280 280 280 281 282 284 286 287 288 287 287 286 286 286 285 285 284 284 284 285 286 286 287
219 219 220 223 225 226 227 228 228 228 229 230 231 232 233 234 235 237 239 241 243 245 247 249 250 252 253 254 256 257 258 259 260 262 264 265 267 267 268 269 270 271 272 274 276 277 278 279 280 282 283 284 284 284 284 284 284 284 284 284 283 283 283 282 282 282 283 284 285 286 287 287 287 287 286 285 285 286 286 285 285 284 284 284 285 285 286
220 220 222 224 226 228 229 230 230 231 231 233 234 234 235 236 237 239 241 243 245 247 249 251 252 254 254 255 256 257 258 260 261 262 263 264 265 267 268 269 270 272 274 275 277 278 279 279 280 281 282 283 283 283 283 283 283 284 284 284 285 285 285 285 285 285 285 286 286 287 287 287 286 286 285 285 285 286 286 286 286 286 285 285 285 285 285
221 221 222 224 226 228 230 231 231 232 233 234 235 237 237 238 239 241 242 244 246 247 249 251 252 253 254 255 256 257 258 259 260 261 263 264 266 267 268 270 272 273 275 276 277 277 278 279 280 281 282 282 283 283 282 283 283 284 284 285 285 286 286 286 287 287 287 287 287 287 287 287 286 285 285 285 285 285 286 286 286 286 286 285 285 285 285
222 222 223 225 227 229 231 232 232 232 233 234 236 237 239 240 241 243 244 246 247 248 250 250 251 252 253 255 255 257 258 259 261 262 263 265 267 268 269 271 273 274 275 276 277 277 278 279 280 281 282 282 282 283 283 283 283 284 284 285 285 286 286 286 286 286 287 287 287 287 288 288 287 286 286 285 285 285 286 286 286 286 285 284 284 285 284
223 224 225 226 229 231 232 233 234 234 234 235 236 238 240 242 243 245 246 247 249 249 250 250 251 252 253 254 256 257 259 261 262 264 265 266 268 269 270 272 273 275 276 277 278 278 279 279 280 281 281 282 282 282 283 283 283 283 283 284 285 285 285 286 286 286 287 287 287 288 288 288 288 288 287 286 286 286 286 286 287 287 286 285 284 284 283
225 226 227 228 230 231 233 234 236 237 237 237 238 239 241 243 245 246 247 248 248 249 250 251 252 253 254 256 258 259 261 262 264 265 267 268 269 270 272 274 275 276 277 278 278 278 279 279 280 280 281 281 282 282 283 283 283 284 284 284 285 285 286 286 287 287 288 288 288 288 288 288 288 288 287 287 286 286 285 285 285 285 285 285 284 283 282
Height
10884 10886 10888 10890 10891 10893 10895 10896 10898 10900 10902 10904 10906 10907 10908 10909 10908 10907 10907 10907 10909 10911 10911 10910 10911 10913 10913 10913 10912 10911 10911 10911 10911 10911 10912 10912 10913 10913 10913 10913 10913 10913 10913 10913 10912 10912 10912 10913 10913 10913 10913 10914 10914 10914 10914 10913 10913 10914 10915 10916 10917 10918 10919 10920 10920 10920 10920 10919 10918 10918 10917 10916 10915 10913 10912 10911 10909 10907 10906 10904 10902 10899 10897 10894 10891 10888 10885
10882 10884 10886 10887 10889 10890 10892 10893 10895 10897 10899 10901 10903 10905 10906 10906 10904 10904 10905 10906 10909 10911 10911 10910 10910 10911 10911 10910 10909 10909 10909 10910 10909 10909 10910 10911 10911 10911 10911 10911 10911 10911 10910 10910 10910 10910 10910 10910 10911 10911 10911 10911 10911 10912 10911 10911 10912 10913 10915 10916 10917 10918 10919 10919 10918 10918 10918 10917 10917 10916 10915 10915 10913 10912 10910 10908 10906 10904 10902 10900 10898 10895 10892 10889 10887 10884 10880
10880 10882 10884 10885 10887 10888 10890 10891 10893 10894 10896 10898 10899 10901 10901 10901 10901 10901 10903 10905 10905 10906 10907 10908 10908 10908 10908 10907 10907 10908 10909 10909 10908 10908 10909 10910 10910 10910 10910 10910 10909 10909 10908 10908 10908 10908 10908 10909 10909 10910 10910 10911 10911 10911 10911 10911 10913 10914 10916 10917 10918 10918 10918 10917 10916 10916 10916 10915 10914 10913 10913 10912 10910 10909 10907 10904 10901 10899 10897 10895 10893 10890 10888 10885 10882 10879 10876
10877 10879 10881 10883 10885 10887 10888 10889 10890 10891 10893 10894 10896 10897 10897 10898 10899 10899 10900 10902 10901 10900 10902 10904 10904 10904 10905 10905 10906 10907 10908 10907 10907 10908 10908 10908 10909 10909 10908 10908 10907 10907 10907 10906 10906 10906 10907 10908 10909 10910 10911 10911 10910 10910 10910 10911 10913 10914 10915 10916 10916 10915 10915 10914 10914 10914 10914 10913 10912 10911 10910 10909 10907 10906 10904 10900 10897 10894 10892 10890 10888 10886 10884 10881 10878 10874 10871
10875 10877 10878 10881 10883 10885 10886 10886 10887 10888 10890 10891 10892 10893 10894 10894 10895 10896 10897 10898 10898 10897 10899 10901 10901 10902 10902 10903 10905 10906 10907 10906 10906 10907 10907 10908 10907 10907 10906 10906 10906 10906 10905 10905 10905 10906 10907 10908 10909 10910 10911 10911 10909 10909 10909 10910 10911 10912 10912 10912 10912 10912 10912 10912 10912 10912 10911 10910 10909 10908 10907 10906 10904 10903 10902 10898 10894 10891 10888 10886 10884 10882 10880 10877 10874 10871 10868
10873 10875 10877 10879 10881 10881 10882 10883 10884 10886 10887 10888 10889 10890 10890 10891 10892 10893 10894 10894 10894 10895 10897 10899 10900 10900 10901 10902 10904 10905 10905 10905 10906 10906 10906 10906 10905 10905 10905 10905 10905 10905 10905 10904 10905 10906 10907 10908 10909 10910 10910 10909 10907 10907 10907 10908 10909 10909 10909 10909 10909 10909 10909 10909 10909 10908 10908 10907 10906 10905 10904 10903 10902 10901 10900 10896 10891 10888 10886 10883 10881 10879 10876 10873 10870 10868 10865
10871 10873 10875 10877 10878 10878 10879 10880 10881 10883 10884 10885 10886 10887 10887 10888 10889 10890 10891 10891 10892 10893 10895 10897 10898 10899 10900 10902 10903 10904 10904 10904 10905 10905 10905 10904 10904 10904 10904 10904 10904 10904 10904 10904 10905 10906 10907 10908 10909 10910 10909 10907 10905 10904 10905 10906 10906 10906 10906 10906 10906 10906 10905 10905 10905 10905 10904 10903 10903 10902 10901 10900 10899 10899 10897 10893 10889 10886 10883 10880 10878 10875 10872 10870 10867 10864 10861
10870 10871 10873 10874 10875 10876 10876 10877 10879 10881 10881 10882 10884 10885 10885 10886 10886 10887 10888 10889 10890 10892 10894 10895 10896 10898 10899 10901 10902 10903 10903 10904 10904 10904 10903 10903 10903 10903 10903 10903 10903 10903 10903 10903 10904 10905 10907 10908 10908 10908 10906 10905 10903 10902 10902 10903 10904 10904 10904 10903 10903 10903 10902 10902 10902 10901 10901 10900 10899 10898 10897 10896 10896 10895 10892 10890 10887 10884 10881 10878 10875 10872 10869 10866 10864 10861 10859
10868 10869 10870 10872 10873 10875 10876 10876 10878 10879 10880 10881 10882 10883 10883 10884 10885 10885 10886 10887 10889 10891 10893 10894 10895 10896 10899 10900 10901 10902 10902 10903 10903 10902 10902 10902 10903 10903 10903 10903 10903 10903 10903 10903 10904 10905 10906 10906 10906 10906 10905 10903 10902 10900 10900 10901 10902 10902 10901 10900 10901 10900 10899 10899 10898 10898 10897 10896 10895 10894 10893 10892 10891 10889 10888 10886 10883 10880 10877 10874 10871 10868 10866 10863 10861 10859 10857
10865 10867 10868 10869 10871 10873 10874 10874 10875 10876 10878 10879 10881 10882 10883 10883 10883 10884 10884 10886 10888 10890 10891 10893 10894 10896 10898 10899 10900 10900 10901 10901 10901 10901 10901 10902 10902 10902 10902 10903 10902 10902 10902 10903 10903 10904 10904 10904 10904 10904 10903 10902 10900 10899 10898 10898 10899 10899 10899 10898 10897 10897 10896 10895 10895 10894 10893 10892 10891 10890 10889 10888 10887 10885 10884 10882 10879 10876 10874 10871 10868 10866 10864 10861 10859 10857 10855
10862 10863 10865 10867 10869 10870 10870 10870 10872 10873 10875 10877 10879 10881 10882 10881 10881 10882 10883 10885 10887 10889 10890 10891 10893 10895 10897 10897 10898 10899 10899 10900 10900 10900 10901 10901 10901 10902 10902 10902 10902 10902 10902 10902 10902 10903 10903 10903 10903 10903 10902 10901 10899 10897 10896 10895 10895 10896 10896 10895 10894 10893 10892 10891 10891 10890 10889 10888 10887 10887 10886 10885 10883 10882 10880 10878 10876 10873 10871 10869 10867 10864 10862 10860 10858 10856 10853
10857 10858 10861 10865 10867 10867 10867 10868 10868 10870 10872 10874 10878 10880 10879 10877 10879 10880 10882 10884 10886 10887 10889 10891 10893 10894 10895 10896 10896 10897 10898 10898 10899 10900 10900 10900 10901 10902 10902 10902 10902 10901 10901 10901 10901 10901 10902 10902 10902 10901 10900 10900 10898 10896 10894 10893 10892 10891 10892 10892 10890 10889 10888 10888 10887 10886 10885 10885 10884 10883 10882 10881 10879 10878 10876 10875 10873 10871 10869 10867 10865 10863 10861 10858 10856 10854 10851
10853 10855 10858 10862 10863 10863 10865 10865 10865 10867 10869 10873 10876 10877 10875 10874 10876 10879 10881 10883 10885 10886 10888 10890 10891 10892 10894 10895 10895 10896 10896 10898 10898 10899 10900 10900 10901 10902 10902 10902 10901 10900 10900 10900 10900 10900 10901 10901 10900 10898 10898 10897 10896 10894 10892 10891 10889 10888 10887 10887 10887 10886 10885 10885 10884 10883 10882 10881 10881 10880 10879 10878 10876 10875 10874 10872 10871 10869 10867 10865 10863 10861 10859 10856 10854 10851 10848
10850 10852 10855 10858 10858 10859 10861 10862 10862 10864 10867 10869 10871 10871 10871 10872 10875 10877 10879 10882 10883 10884 10886 10888 10890 10891 10892 10893 10894 10895 10896 10897 10898 10898 10899 10900 10900 10901 10901 10901 10900 10900 10899 10899 10899 10899 10899 10899 10898 10896 10895 10895 10894 10892 10890 10889 10887 10885 10883 10883 10883 10883 10882 10882 10881 10880 10879 10878 10878 10877 10877 10875 10874 10873 10871 10870 10868 10867 10865 10863 10861 10859 10857 10854 10852 10849 10846
10849 10851 10853 10855 10855 10855 10856 10858 10859 10861 10863 10865 10866 10867 10869 10871 10873 10875 10878 10880 10881 10882 10884 10886 10888 10890 10891 10892 10893 10894 10895 10896 10897 10898 10898 10899 10900 10900 10900 10900 10899 10899 10899 10898 10898 10898 10898 10897 10895 10893 10893 10892 10891 10890 10888 10886 10884 10882 10881 10880 10879 10879 10878 10878 10878 10877 10877 10876 10875 10875 10874 10873 10872 10870 10869 10868 10866 10865 10863 10861 10859 10857 10855 10852 10849 10847 10844
10847 10849 10850 10851 10851 10851 10852 10854 10855 10857 10859 10861 10863 10865 10867 10869 10872 10874 10876 10877 10879 10881 10883 10885 10887 10889 10890 10891 10892 10893 10894 10895 10896 10897 10898 10898 10899 10899 10899 10899 10898 10898 10899 10898 10897 10897 10896 10895 10893 10891 10890 10889 10889 10888 10886 10884 10882 10880 10879 10878 10877 10876 10876 10876 10876 10875 10875 10874 10874 10873 10871 10870 10869 10868 10867 10866 10864 10863 10861 10859 10857 10855 10853 10850 10847 10845 10842
10842 10844 10845 10846 10847 10848 10849 10851 10852 10854 10856 10858 10860 10863 10865 10868 10871 10873 10874 10876 10878 10880 10882 10884 10886 10888 10889 10890 10891 10892 10893 10894 10895 10896 10897 10897 10898 10898 10898 10898 10898 10898 10898 10898 10897 10895 10894 10892 10891 10889 10888 10887 10886 10885 10884 10882 10880 10878 10877 10876 10875 10875 10874 10874 10874 10873 10873 10872 10872 10871 10869 10868 10867 10866 10865 10864 10862 10861 10859 10857 10855 10852 10850 10848 10845 10842 10839
10839 10840 10842 10844 10845 10846 10846 10847 10849 10851 10853 10856 10858 10861 10864 10866 10869 10871 10873 10875 10877 10879 10881 10883 10885 10886 10888 10889 10890 10891 10892 10893 10894 10895 10896 10896 10897 10897 10896 10896 10897 10897 10897 10896 10895 10894 10892 10891 10890 10888 10886 10884 10883 10882 10881 10879 10878 10877 10876 10875 10874 10874 10873 10873 10872 10871 10871 10870 10869 10868 10867 10866 10865 10864 10863 10861 10860 10858 10856 10854 10852 10850 10848 10846 10843 10840 10837
10836 10838 10840 10841 10842 10843 10843 10844 10846 10849 10852 10854 10857 10859 10862 10865 10867 10869 10871 10873 10875 10877 10879 10881 10883 10884 10886 10887 10888 10889 10890 10891 10893 10894 10895 10895 10895 10895 10895 10895 10895 10896 10896 10895 10894 10893 10891 10889 10888 10887 10884 10882 10881 10880 10878 10877 10876 10875 10874 10874 10873 10873 10872 10871 10870 10869 10869 10868 10867 10866 10865 10864 10863 10862 10861 10859 10857 10855 10854 10852 10850 10847 10845 10843 10840 10837 10835
10833 10835 10836 10837 10839 10840 10841 10843 10845 10848 10850 10853 10855 10857 10860 10863 10865 10867 10869 10871 10874 10876 10878 10880 10881 10882 10883 10885 10886 10887 10888 10890 10891 10892 10894 10894 10894 10894 10893 10893 10894 10894 10894 10893 10893 10891 10890 10888 10886 10885 10884 10881 10880 10878 10877 10875 10874 10874 10873 10872 10872 10871 10870 10869 10868 10867 10867 10866 10865 10864 10863 10862 10861 10860 10858 10857 10855 10853 10851 10849 10847 10845 10842 10840 10837 10834 10832
10830 10832 10833 10835 10836 10838 10840 10841 10844 10846 10849 10851 10853 10856 10858 10861 10863 10865 10867 10870 10872 10874 10876 10878 10880 10881 10882 10883 10884 10885 10886 10888 10889 10891 10892 10893 10893 10892 10892 10892 10892 10893 10892 10892 10891 10890 10888 10886 10885 10884 10883 10881 10879 10877 10876 10874 10873 10872 10871 10870 10869 10869 10867 10867 10866 10865 10864 10863 10862 10862 10861 10860 10859 10857 10855 10854 10852 10850 10848 10846 10844 10841 10839 10836 10834 10831 10829
10828 10830 10831 10833 10835 10837 10838 10840 10842 10845 10847 10850 10852 10854 10857 10859 10862 10864 10866 10868 10871 10873 10875 10876 10878 10879 10881 10882 10883 10884 10885 10886 10887 10889 10890 10891 10891 10891 10891 10891 10891 10891 10891 10890 10889 10888 10887 10885 10883 10882 10881 10880 10878 10876 10875 10873 10872 10871 10869 10868 10867 10866 10865 10864 10863 10863 10862 10861 10860 10859 10858 10857 10855 10854 10852 10850 10849 10847 10845 10843 10841 10838 10836 10833 10831 10829 10826
10826 10828 10830 10832 10834 10835 10836 10838 10840 10843 10845 10848 10850 10852 10855 10857 10860 10862 10864 10867 10869 10871 10873 10875 10876 10878 10879 10880 10881 10882 10883 10884 10885 10887 10888 10889 10889 10889 10889 10889 10889 10889 10889 10888 10887 10887 10886 10884 10882 10880 10879 10878 10877 10875 10874 10872 10871 10870 10868 10867 10866 10865 10863 10862 10861 10860 10859 10858 10857 10855 10854 10853 10852 10850 10848 10847 10845 10843 10842 10840 10838 10835 10833 10831 10829 10826 10823
10824 10826 10828 10830 10831 10833 10834 10836 10839 10841 10844 10846 10848 10851 10853 10855 10858 10860 10863 10865 10867 10870 10871 10873 10874 10876 10877 10878 10879 10880 10881 10882 10883 10885 10886 10887 10887 10888 10888 10888 10888 10888 10887 10886 10885 10885 10884 10883 10881 10879 10877 10876 10875 10874 10872 10871 10869 10868 10867 10865 10864 10863 10862 10860 10859 10858 10857 10855 10854 10852 10851 10850 10848 10847 10845 10844 10842 10840 10839 10837 10835 10833 10831 10829 10826 10824 10821
10820 10822 10825 10827 10829 10830 10832 10835 10837 10840 10842 10845 10847 10849 10851 10854 10856 10858 10861 10863 10865 10868 10870 10871 10873 10874 10875 10876 10877 10878 10879 10880 10881 10883 10884 10885 10886 10886 10886 10886 10886 10885 10885 10884 10883 10882 10882 10881 10880 10878 10876 10874 10872 10871 10871 10869 10868 10867 10865 10863 10862 10861 10860 10858 10857 10856 10855 10853 10852 10850 10849 10847 10846 10844 10843 10841 10840 10838 10836 10834 10832 10830 10828 10826 10824 10821 10818
10818 10820 10822 10824 10827 10829 10831 10833 10836 10838 10841 10843 10845 10847 10850 10852 10854 10856 10858 10861 10863 10865 10867 10869 10871 10872 10873 10874 10875 10876 10877 10878 10879 10881 10882 10883 10884 10884 10884 10884 10884 10883 10883 10882 10881 10880 10880 10879 10878 10877 10875 10873 10871 10869 10868 10867 10866 10865 10863 10862 10860 10858 10857 10856 10855 10854 10853 10851 10850 10848 10847 10845 10843 10842 10840 10839 10837 10836 10834 10832 10830 10828 10826 10823 10821 10818 10815
10816 10818 10820 10822 10825 10828 10831 10832 10834 10836 10839 10841 10843 10846 10848 10850 10852 10854 10856 10858 10860 10863 10865 10866 10868 10870 10871 10873 10874 10874 10875 10876 10877 10878 10880 10881 10882 10882 10882 10882 10882 10881 10881 10880 10879 10878 10877 10876 10876 10875 10873 10871 10870 10868 10866 10865 10863 10862 10861 10860 10858 10856 10854 10853 10852 10851 10850 10849 10847 10846 10844 10843 10841 10839 10838 10836 10834 10833 10831 10830 10828 10825 10823 10820 10818 10815 10813
10814 10816 10818 10821 10823 10826 10829 10831 10832 10834 10837 10839 10841 10844 10846 10848 10850 10852 10854 10856 10858 10860 10862 10863 10865 10867 10868 10870 10871 10872 10873 10874 10875 10876 10877 10878 10879 10879 10880 10880 10879 10879 10878 10878 10877 10876 10875 10874 10873 10872 10871 10870 10868 10866 10865 10863 10861 10860 10858 10857 10856 10854 10853 10851 10850 10848 10847 10846 10845 10844 10842 10841 10839 10837 10836 10834 10832 10830 10829 10827 10825 10823 10820 10818 10816 10814 10811
10812 10814 10816 10818 10820 10823 10825 10827 10830 10832 10834 10837 10839 10841 10843 10846 10848 10850 10852 10854 10855 10857 10859 10860 10862 10864 10866 10867 10869 10869 10870 10871 10872 10873 10874 10875 10876 10877 10877 10877 10877 10877 10876 10876 10875 10874 10873 10872 10871 10870 10868 10867 10866 10865 10864 10862 10860 10858 10856 10855 10853 10852 10851 10849 10848 10846 10845 10844 10843 10842 10841 10839 10838 10836 10834 10833 10831 10829 10827 10825 10823 10820 10818 10816 10814 10812 10810
10810 10811 10813 10815 10817 10819 10822 10824 10827 10830 10832 10835 10837 10839 10841 10843 10846 10848 10849 10850 10852 10854 10855 10857 10859 10861 10863 10865 10866 10866 10867 10868 10869 10870 10871 10872 10873 10873 10874 10874 10874 10874 10874 10873 10872 10872 10871 10870 10869 10867 10866 10865 10864 10863 10862 10861 10859 10857 10855 10853 10851 10849 10848 10847 10846 10844 10843 10842 10841 10840 10839 10837 10836 10834 10833 10831 10829 10827 10825 10823 10821 10819 10817 10815 10813 10811 10809
10808 10809 10810 10812 10814 10816 10818 10821 10824 10827 10830 10832 10834 10836 10839 10841 10842 10844 10846 10847 10849 10851 10853 10855 10857 10859 10860 10862 10863 10864 10865 10865 10866 10866 10867 10869 10869 10870 10870 10871 10871 10871 10871 10870 10870 10869 10869 10868 10866 10865 10864 10863 10862 10861 10860 10859 10857 10856 10854 10852 10850 10848 10846 10845 10843 10842 10841 10839 10838 10837 10836 10835 10834 10832 10831 10829 10827 10825 10823 10821 10819 10817 10816 10814 10812 10810 10807
10804 10806 10807 10809 10810 10812 10815 10817 10820 10824 10827 10829 10832 10834 10835 10837 10839 10841 10843 10844 10846 10848 10850 10852 10854 10855 10857 10858 10860 10861 10862 10862 10862 10863 10864 10865 10866 10867 10867 10867 10867 10867 10867 10867 10867 10867 10866 10865 10864 10863 10862 10861 10860 10859 10857 10856 10855 10853 10852 10850 10848 10847 10845 10843 10841 10840 10839 10837 10836 10835 10834 10832 10831 10830 10829 10827 10825 10824 10822 10820 10818 10816 10815 10813 10811 10809 10807
10801 10803 10805 10806 10807 10809 10811 10814 10817 10820 10823 10825 10828 10830 10832 10834 10836 10838 10840 10842 10843 10845 10846 10848 10850 10852 10853 10855 10856 10858 10858 10859 10859 10860 10861 10862 10862 10863 10864 10864 10864 10864 10864 10864 10864 10863 10863 10863 10862 10861 10859 10858 10857 10856 10855 10854 10852 10850 10849 10848 10846 10845 10843 10841 10839 10838 10836 10835 10834 10832 10831 10830 10829 10827 10826 10825 10824 10822 10821 10819 10818 10816 10814 10812 10810 10808 10806
10798 10800 10802 10803 10804 10806 10808 10810 10813 10816 10818 10821 10823 10826 10828 10831 10833 10835 10837 10838 10840 10841 10843 10844 10846 10847 10849 10851 10852 10854 10854 10855 10856 10856 10857 10858 10859 10859 10860 10860 10860 10860 10860 10860 10860 10860 10860 10859 10859 10858 10857 10856 10855 10854 10853 10851 10850 10848 10847 10845 10844 10842 10841 10839 10837 10836 10834 10833 10831 10830 10829 10827 10826 10825 10824 10823 10822 10820 10819 10817 10816 10814 10813 10811 10809 10807 10805
10795 10796 10798 10799 10800 10802 10804 10807 10809 10812 10815 10817 10820 10822 10825 10827 10829 10831 10833 10835 10836 10838 10839 10840 10842 10843 10845 10847 10848 10849 10850 10851 10852 10852 10853 10854 10854 10855 10856 10856 10856 10856 10856 10856 10856 10856 10856 10856 10856 10855 10854 10853 10852 10851 10850 10849 10847 10846 10844 10843 10841 10840 10838 10837 10835 10834 10832 10830 10829 10828 10826 10825 10824 10822 10821 10820 10819 10818 10817 10815 10814 10813 10811 10809 10807 10806 10804
10791 10792 10794 10796 10798 10800 10802 10804 10806 10809 10811 10814 10816 10819 10821 10823 10825 10827 10829 10831 10832 10834 10835 10836 10838 10839 10841 10842 10843 10845 10846 10846 10847 10848 10848 10849 10850 10851 10851 10852 10852 10852 10852 10852 10852 10852 10852 10852 10851 10851 10850 10850 10849 10848 10847 10846 10844 10843 10841 10840 10839 10837 10836 10834 10833 10831 10830 10828 10827 10825 10824 10823 10822 10820 10819 10817 10816 10815 10814 10813 10812 10811 10809 10807 10806 10804 10802
10787 10789 10791 10793 10795 10797 10799 10800 10803 10805 10808 10810 10813 10815 10817 10819 10821 10823 10825 10827 10828 10829 10831 10832 10834 10835 10836 10838 10839 10840 10841 10842 10843 10843 10844 10845 10846 10846 10847 10847 10847 10847 10848 10848 10848 10848 10848 10848 10847 10847 10846 10846 10845 10844 10843 10842 10841 10839 10838 10837 10835 10834 10833 10832 10830 10829 10827 10826 10824 10823 10821 10820 10819 10818 10817 10815 10814 10813 10812 10811 10810 10808 10807 10805 10804 10802 10800
10783 10785 10788 10790 10792 10794 10795 10797 10800 10802 10804 10806 10809 10811 10813 10815 10817 10819 10821 10822 10824 10825 10826 10828 10829 10831 10832 10833 10834 10835 10836 10837 10838 10839 10839 10841 10841 10842 10842 10842 10843 10843 10843 10844 10844 10844 10843 10843 10842 10842 10841 10841 10840 10839 10838 10837 10836 10835 10834 10833 10832 10831 10829 10828 10827 10826 10824 10823 10821 10820 10818 10817 10816 10815 10814 10813 10812 10811 10809 10808 10807 10806 10805 10803 10802 10800 10798
10779 10781 10784 10786 10788 10790 10792 10794 10797 10799 10801 10803 10805 10806 10808 10811 10813 10814 10816 10818 10819 10821 10822 10824 10825 10826 10827 10829 10830 10831 10832 10833 10834 10834 10835 10836 10837 10837 10838 10838 10838 10839 10839 10839 10839 10839 10839 10838 10837 10837 10836 10836 10835 10834 10833 10832 10831 10830 10829 10828 10827 10826 10825 10824 10823 10822 10820 10819 10818 10817 10815 10814 10813 10812 10811 10810 10809 10808 10807 10805 10804 10803 10802 10800 10799 10798 10796
10775 10778 10781 10783 10785 10787 10789 10791 10793 10795 10797 10799 10801 10802 10804 10806 10808 10810 10812 10814 10815 10816 10818 10819 10821 10822 10823 10824 10825 10826 10828 10829 10829 10830 10831 10832 10833 10833 10833 10833 10834 10834 10834 10834 10834 10834 10834 10833 10832 10832 10831 10830 10829 10828 10828 10827 10826 10825 10824 10823 10822 10821 10821 10820 10819 10817 10816 10815 10814 10812 10811 10810 10809 10808 10807 10807 10806 10805 10804 10803 10801 10800 10799 10797 10796 10795 10794
10772 10775 10777 10779 10781 10783 10786 10788 10790 10792 10794 10795 10797 10798 10800 10802 10804 10806 10808 10809 10811 10812 10813 10815 10816 10818 10819 10820 10821 10823 10824 10825 10825 10826 10826 10827 10828 10828 10828 10829 10829 10830 10830 10829 10829 10829 10829 10828 10828 10827 10826 10825 10824 10823 10822 10821 10820 10819 10818 10817 10817 10816 10815 10815 10814 10813 10812 10811 10810 10808 10807 10806 10806 10805 10804 10803 10802 10801 10801 10799 10798 10797 10796 10795 10793 10792 10792
10769 10771 10773 10775 10777 10780 10782 10784 10786 10788 10790 10792 10793 10795 10796 10798 10800 10801 10803 10804 10806 10807 10809 10810 10812 10814 10815 10816 10817 10818 10819 10820 10820 10821 10821 10822 10822 10823 10823 10824 10824 10825 10824 10824 10824 10824 10824 10823 10822 10822 10821 10820 10819 10818 10817 10816 10815 10814 10813 10812 10811 10811 10810 10809 10809 10808 10807 10806 10805 10804 10803 10802 10801 10801 10800 10799 10798 10798 10797 10796 10795 10794 10793 10792 10790 10789 10788
10765 10767 10769 10771 10774 10776 10777 10780 10782 10784 10786 10788 10789 10791 10793 10794 10796 10797 10799 10800 10801 10803 10804 10806 10808 10809 10810 10811 10812 10813 10814 10814 10815 10815 10816 10816 10817 10818 10818 10819 10819 10819 10819 10819 10819 10818 10818 10817 10817 10816 10815 10814 10814 10813 10812 10811 10810 10809 10808 10807 10806 10806 10805 10804 10803 10803 10802 10802 10801 10800 10799 10798 10797 10797 10796 10795 10794 10794 10793 10792 10791 10790 10789 10788 10787 10786 10785
10761 10763 10766 10768 10770 10772 10774 10776 10778 10780 10782 10784 10786 10787 10789 10791 10792 10793 10795 10796 10797 10799 10800 10802 10803 10804 10805 10806 10807 10808 10809 10809 10810 10811 10811 10812 10812 10813 10813 10814 10814 10814 10813 10813 10813 10812 10812 10811 10811 10810 10809 10809 10808 10807 10806 10805 10805 10804 10803 10803 10802 10801 10800 10799 10798 10798 10797 10797 10796 10795 10794 10794 10793 10792 10791 10790 10790 10789 10789 10788 10787 10786 10785 10784 10783 10782 10781
10757 10760 10762 10764 10766 10768 10770 10772 10775 10777 10779 10781 10783 10784 10786 10787 10788 10790 10791 10792 10794 10795 10796 10797 10798 10799 10800 10802 10802 10803 10804 10805 10805 10806 10806 10807 10807 10807 10808 10808 10807 10807 10807 10807 10807 10807 10806 10805 10804 10803 10803 10803 10802 10802 10801 10800 10799 10799 10798 10797 10797 10796 10795 10794 10793 10793 10792 10792 10791 10790 10790 10789 10788 10787 10786 10785 10785 10784 10784 10783 10782 10782 10781 10779 10778 10778 10777
10753 10756 10758 10760 10762 10764 10766 10769 10771 10773 10775 10777 10779 10781 10782 10783 10785 10786 10787 10788 10789 10790 10792 10793 10794 10795 10796 10797 10798 10798 10799 10800 10800 10800 10801 10801 10802 10802 10802 10801 10801 10801 10801 10801 10801 10801 10800 10799 10798 10797 10797 10797 10797 10796 10795 10794 10793 10793 10792 10792 10791 10790 10790 10789 10788 10788 10787 10786 10786 10785 10785 10784 10783 10783 10782 10781 10780 10779 10778 10778 10777 10777 10776 10775 10774 10773 10772
10750 10752 10754 10756 10758 10760 10762 10765 10767 10769 10771 10773 10775 10777 10778 10779 10781 10782 10783 10784 10785 10786 10787 10788 10789 10790 10791 10792 10793 10793 10794 10794 10795 10795 10796 10796 10796 10796 10795 10795 10795 10796 10796 10796 10796 10795 10795 10793 10792 10792 10792 10792 10792 10791 10790 10789 10788 10787 10786 10786 10785 10785 10784 10784 10783 10782 10782 10781 10781 10780 10780 10779 10778 10777 10776 10776 10775 10774 10773 10772 10772 10771 10770 10770 10769 10768 10767
10746 10748 10750 10752 10754 10756 10758 10760 10763 10765 10767 10769 10770 10772 10774 10775 10776 10778 10779 10780 10781 10782 10783 10784 10785 10786 10787 10787 10788 10788 10788 10789 10789 10790 10790 10790 10790 10790 10790 10790 10790 10790 10790 10791 10791 10790 10789 10788 10787 10786 10787 10786 10786 10785 10784 10783 10782 10782 10781 10780 10780 10779 10778 10778 10777 10777 10776 10775 10775 10774 10774 10773 10772 10772 10771 10770 10769 10768 10767 10767 10766 10765 10765 10764 10763 10763 10762
10742 10745 10747 10748 10750 10752 10754 10756 10758 10761 10763 10764 10766 10768 10769 10770 10772 10773 10774 10775 10776 10778 10779 10780 10780 10781 10782 10782 10782 10783 10783 10783 10784 10784 10785 10785 10785 10785 10785 10785 10785 10785 10785 10786 10785 10785 10784 10782 10781 10781 10781 10781 10780 10780 10779 10778 10777 10776 10776 10775 10774 10773 10773 10772 10771 10771 10770 10769 10769 10768 10768 10767 10766 10766 10765 10764 10763 10762 10761 10761 10760 10759 10759 10758 10757 10757 10756
10739 10741 10743 10745 10746 10748 10750 10752 10754 10756 10758 10760 10761 10763 10765 10766 10767 10769 10770 10771 10772 10773 10774 10775 10776 10776 10777 10777 10777 10778 10778 10778 10779 10779 10779 10780 10780 10780 10779 10779 10780 10780 10780 10780 10780 10780 10779 10777 10776 10776 10775 10775 10774 10774 10773 10772 10772 10771 10770 10769 10768 10768 10767 10766 10765 10764 10764 10763 10762 10762 10761 10760 10760 10759 10758 10758 10757 10756 10755 10754 10753 10753 10752 10752 10751 10750 10750
10735 10737 10739 10741 10742 10744 10746 10749 10750 10752 10754 10756 10757 10759 10760 10761 10763 10764 10766 10767 10768 10769 10769 10770 10771 10771 10772 10772 10772 10773 10773 10774 10774 10774 10774 10774 10774 10774 10774 10774 10774 10775 10775 10775 10775 10774 10773 10772 10771 10770 10769 10768 10768 10767 10767 10766 10766 10765 10764 10763 10762 10761 10760 10759 10758 10758 10757 10756 10756 10755 10754 10753 10752 10752 10751 10751 10750 10750 10749 10748 10747 10746 10745 10744 10744 10744 10743
10731 10733 10735 10737 10739 10741 10743 10745 10746 10748 10750 10752 10753 10755 10756 10757 10759 10760 10761 10762 10763 10764 10765 10765 10766 10767 10767 10767 10767 10768 10768 10769 10769 10769 10769 10769 10769 10769 10769 10769 10769 10770 10770 10770 10769 10769 10768 10767 10766 10764 10763 10762 10762 10761 10760 10760 10759 10759 10758 10757 10756 10755 10754 10753 10752 10751 10750 10749 10749 10748 10747 10746 10745 10744 10743 10743 10743 10742 10742 10741 10740 10739 10738 10737 10736 10736 10736